www.pogodaiklimat.ru

Погода и климат >> Архив погоды >> Индонезия >> Санана


ПОГОДА на Санане

  • Прогноз погоды на Санане
  • Монитор погоды на Санане

АРХИВ ПОГОДЫ на Санане

Время (UTC), дата Ветер
(напр.,м/с)
 
Видим.   Явления Облачность Т
(С)
Тd
(С)
f
(%)
Тe
(С)
Тes
(С)
Комфортность P
(гПа)
Po
(гПа)
Тmin
(С)
Tmax
(С)
R
(мм)
R24
(мм)
S
(см)
18 13.09 В 3 10 км 5/3 570 м
[Cu med, cong Ac trans Ci fib]
+26.0 +21.1 74 +33 +33 очень
душно
1012.8 1012.6
00 14.09 10 км н/о +27.6 +21.6 70 +35 +42 очень
душно
1014.7 1014.5 0.0
03 14.09 Ю 2 10 км 3/3 600 м
[Cu hum Ci fib]
+31.0 +21.9 58 +39 +54 опасность
солнечного
удара
1013.6 1013.4
06 14.09 ЮВ 1 10 км 5/4 570 м
[Cu med, cong Ac trans Ci fib]
+31.0 +22.2 60 +40 +49 очень
душно
1011.3 1011.1
09 14.09 СВ 2 10 км 5/3 570 м
[Cu med, cong Ac trans Ci fib]
+28.2 +21.6 67 +36 +36 очень
душно
1010.7 1010.5
12 14.09 СЗ 3 9000 м 6/4 570 м
[Cu med, cong Ac trans Ci fib]
+25.8 +21.9 79 +33 +33 очень
душно
1012.2 1012.0 +31.4
15 14.09 З 1 9000 м 6/4 570 м
[Cu med, cong Ac trans Ci fib]
+25.2 +22.2 83 +33 +33 очень
душно
1013.2 1013.0
18 14.09 З 1 10 км 9/4 570 м
[Cu med, cong Ac trans Ci fib]
+24.4 +22.2 88 +32 +32 очень
душно
1012.6 1012.3
00 15.09 СВ 1 10 км 4/3 600 м
[Cu hum Ac trans Ci fib]
+27.2 +22.4 75 +36 +41 очень
душно
1013.8 1013.6
03 15.09 СВ 3 10 км 4/3 600 м
[Cu hum Ac trans Ci fib]
+29.2 +21.4 63 +37 +49 очень
душно
1012.5 1012.3
06 15.09 В 2 10 км 5/3 600 м
[Cu med, cong Ac trans Ci fib]
+30.2 +21.3 59 +38 +47 очень
душно
1010.6 1010.4
09 15.09 штиль 0 10 км 5/4 600 м
[Cu med, cong Ac trans Ci sp]
+29.2 +22.4 67 +38 +39 очень
душно
1010.6 1010.4
12 15.09 З 1 10 км 5/4 600 м
[Cu med, cong Ac trans Ci sp]
+25.2 +22.8 87 +33 +33 очень
душно
1012.4 1012.1 +30.2
15 15.09 З 1 10 км 6/4 600 м
[Cu med, cong Ac trans Ci fib]
+24.6 +21.5 83 +31 +31 очень
душно
1013.0 1012.8
18 15.09 З 1 8000 м осадки на расстоянии 9/5 500 м
[Cb cap Ac As Ci fib]
+23.8 +21.6 87 +30 +30 очень
душно
1012.3 1012.1 0.0
00 16.09 В 2 10 км 5/3 570 м
[Cu med, cong Ac trans Ci fib]
+29.0 +22.8 69 +38 +43 очень
душно
1013.3 1013.1 0.0
03 16.09 В 2 10 км 5/3 570 м
[Cu med, cong Ac trans Ci fib]
+30.2 +22.9 65 +40 +53 опасность
солнечного
удара
1012.6 1012.3
06 16.09 ЮВ 1 10 км 5/3 570 м
[Cu med, cong Ac trans Ci fib]
+31.4 +23.0 61 +42 +52 опасность
перегрева
1010.2 1010.0
09 16.09 В 1 10 км 5/4 570 м
[Cu med, cong Ac trans Ci fib]
+29.2 +22.7 68 +39 +39 очень
душно
1010.2 1010.0
12 16.09 штиль 0 9000 м 9/4 570 м
[Cu med, cong Ac trans Ci fib]
+26.0 +22.7 82 +34 +34 очень
душно
1012.0 1011.8 +31.4
15 16.09 З 1 10 км 6/3 570 м
[Cu med, cong Ac trans Ci fib]
+24.6 +22.4 88 +32 +32 очень
душно
1012.1 1011.9
18 16.09 СЗ 1 9000 м 8/4 570 м
[Cu med, cong Ac trans Ci fib]
+24.4 +22.2 88 +32 +32 очень
душно
1011.4 1011.1
00 17.09 В 3 10 км 5/3 570 м
[Cu med, cong Ac trans Ci fib]
+28.6 +22.4 69 +37 +41 очень
душно
1013.4 1013.2
03 17.09 В 2 9000 м 8/4 570 м
[Cu med, cong Ac trans Ci fib]
+30.4 +22.8 64 +40 +49 очень
душно
1012.9 1012.7
06 17.09 Ю 2 9000 м 8/4 570 м
[Cu med, cong Ac trans Ci fib]
+31.4 +24.2 66 +44 +50 опасность
перегрева
1011.0 1010.8
09 17.09 ЮВ 2 8000 м осадки на расстоянии 8/5 500 м
[Cb cap Ac trans Ci fib]
+29.0 +24.1 75 +40 +41 очень
душно
1011.5 1011.3
12 17.09 СЗ 1 8000 м 8/4 570 м
[Cu med, cong Ac trans Ci fib]
+26.6 +23.0 81 +36 +36 очень
душно
1013.2 1013.0 +32.0
15 17.09 штиль 0 8000 м 5/3 570 м
[Cu med, cong Ac trans Ci fib]
+24.8 +22.0 84 +32 +32 очень
душно
1013.7 1013.4
18 17.09 З 1 8000 м 6/4 570 м
[Cu med, cong Ac trans Ci fib]
+23.8 +21.6 87 +30 +30 очень
душно
1012.3 1012.1
00 18.09 В 2 10 км 5/3 570 м
[Cu med, cong Ac trans Ci fib]
+28.8 +23.5 73 +39 +44 очень
душно
1014.8 1014.5
03 18.09 В 1 10 км 5/3 570 м
[Cu med, cong Ac trans Ci fib]
+31.2 +23.7 64 +42 +57 опасность
перегрева
1013.5 1013.3
06 18.09 ЮВ 1 10 км 6/4 570 м
[Cu med, cong Ac trans Ci fib]
+31.6 +23.5 62 +42 +51 опасность
перегрева
1011.8 1011.6
09 18.09 Ю 1 10 км 5/4 570 м
[Cu med, cong Ac trans Ci fib]
+30.4 +23.4 66 +41 +41 опасность
перегрева
1012.1 1011.8
12 18.09 СЗ 1 8000 м 5/4 570 м
[Cu med, cong Ac trans Ci fib]
+24.6 +21.8 84 +31 +31 очень
душно
1013.5 1013.2 +32.0
15 18.09 СЗ 1 9000 м 6/4 570 м
[Cu med, cong Ac trans Ci fib]
+24.6 +21.8 84 +31 +31 очень
душно
1013.5 1013.2
18 18.09 З 1 10 км 6/4 570 м
[Cu med, cong Ac trans Ci fib]
+24.0 +22.1 89 +31 +31 очень
душно
1012.4 1012.1
00 19.09 В 1 9000 м 6/3 570 м
[Cu med, cong Ac trans Ci fib]
+27.8 +23.4 77 +38 +43 очень
душно
1014.1 1013.9
03 19.09 ЮВ 1 10 км 5/3 570 м
[Cu med, cong Ac trans Ci fib]
+31.0 +22.5 61 +41 +56 опасность
перегрева
1012.7 1012.4
06 19.09 ЮВ 2 10 км 5/3 570 м
[Cu med, cong Ac trans Ci fib]
+32.2 +22.9 58 +42 +52 опасность
перегрева
1010.9 1010.7
09 19.09 ЮВ 1 10 км 5/4 570 м
[Cu med, cong Ac trans Ci fib]
+30.6 +23.0 64 +41 +41 опасность
перегрева
1011.2 1010.9
12 19.09 З 1 9000 м 9/4 570 м
[Cu med, cong Ac trans Ci fib]
+26.8 +22.9 79 +36 +36 очень
душно
1012.5 1012.3 +32.0
15 19.09 З 1 9000 м 8/4 570 м
[Cu med, cong Ac trans Ci fib]
+25.0 +22.2 84 +32 +32 очень
душно
1012.5 1012.3
18 19.09 штиль 0 9000 м 8/4 570 м
[Cu med, cong Ac trans Ci fib]
+24.2 +22.3 89 +31 +31 очень
душно
1011.3 1011.1
00 20.09 штиль 0 8000 м 9/4 570 м
[Cu med, cong Ac trans Ci fib]
+26.6 +23.0 81 +36 +39 очень
душно
1013.2 1013.0
03 20.09 В 3 9000 м 6/4 570 м
[Cu med, cong Ac trans Ci fib]
+30.0 +23.9 70 +41 +50 опасность
перегрева
1012.2 1012.0
06 20.09 В 1 8000 м 8/5 500 м
[Cb cap Ac trans Ci fib]
+31.2 +22.7 61 +41 +47 опасность
перегрева
1010.4 1010.2
09 20.09 З 2 8000 м осадки на расстоянии 8/5 500 м
[Cb cap Ac trans Ci fib]
+30.0 +23.0 66 +40 +40 очень
душно
1011.0 1010.8
12 20.09 СЗ 1 9000 м 6/4 570 м
[Cu med, cong Ac trans Ci fib]
+26.6 +22.7 79 +35 +35 очень
душно
1012.6 1012.3 +31.4
15 20.09 штиль 0 9000 м 6/4 570 м
[Cu med, cong Ac trans Ci fib]
+25.2 +22.5 85 +33 +33 очень
душно
1012.3 1012.1

 

Местоположение метеостанции Санана (Индонезия): широта -2.08 долгота 126.00 высота над уровнем моря 2 м.

В архиве по умолчанию представлена погода на Санане за последнюю неделю. Архивные данные за месяц целиком и за предыдущие месяцы, начиная с января 2011 года, Вы можете получить, выбрав интересующий диапазон дат из раскрывающегося списка и нажав кнопку "Ввод!".


*Определитесь, кто Вы:
робот инопланетянин человек

Внимание! Время в таблицах - всемирное. Для получения местного времени необходимо прибавить поправку, которая равна 9 ч.

Смотрите также архив погоды в соседних городах и на ближайших метеорологических станциях:

Погода в Тауне (Индонезия) (177 км)
Погода в Намлеа (Индонезия) (177 км)
Погода в Лабухе (Индонезия) (232 км)
Погода в Амбоне (Индонезия) (293 км)
Погода в Амахаи (Индонезия) (350 км)
Погода в Тернате (Индонезия) (351 км)
Погода в Лувуке (Индонезия) (381 км)
Погода в Битунге (Индонезия) (401 км)
Погода в Менадо (Индонезия) (419 км)
Погода в Горонтало (Индонезия) (436 км)

Пояснения к столбцам:

Ветер - указаны скорость ветра в м/с - средняя за 10 мин, порывы в срок и между сроками (в фигурных скобках) и направление, откуда дует ветер: С - северный, СВ - северо-восточный, В - восточный, ЮВ - юго-восточный, Ю - южный, ЮЗ - юго-западный, З - западный, СЗ - северо-западный.
Видимость - горизонтальная дальность видимости в метрах или километрах. При видимости от 1 до 10 км при отсутствии осадков обычно наблюдается дымка, при ухудшении видимости до 1 км и менее - туман. В сухую погоду видимость может ухудшаться дымом, пылью или мглою.
Явления - указаны атмосферные явления, наблюдавшиеся в срок или в последний час перед сроком; фигурными скобками обозначены явления, наблюдавшиеся между сроками (за 1-3 часа до срока); квадратными скобками обозначены град или гололедные отложения с указанием их диаметра в мм.
Облачность - указаны через наклонную черту общая и нижняя облачность в баллах и высота нижней границы облаков в метрах; квадратными скобками обозначены формы облаков: Ci - перистые, Cs - перисто-слоистые, Cc - перисто-кучевые, Ac - высококучевые, As - высокослоистые, Sc - слоисто-кучевые, Ns - слоисто-дождевые, Cu - кучевые, Cb - кучево-дождевые. Подробнее классификацию облаков см. в Атласе облаков (PDF).
T - Температура воздуха - температура, измеренная на высоте 2 м над землей.
Td - Температура точки росы - температура, при понижении до которой содержащийся в воздухе водяной пар достигнет насыщения.
f - Относительная влажность воздуха - влажноcть воздуха, измеренная на высоте 2 м над землей.
Te - Эффективная температура - температура, которую ощущает одетый по сезону человек в тени. Характеристика душности погоды. При расчете учитывается влияние влажности воздуха и скорости ветра на теплоощущения человека.
Tes - Эффективная температура на солнце - температура, которую ощущает человек, с поправкой на солнечный нагрев. Характеристика знойности погоды. Зависит от высоты солнца над горизонтом, облачности и скорости ветра. Ночью, в пасмурную погоду, а также при ветре 12 м/с и более поправка равна нулю.
P - Атмосферное давление - приведенное к уровню моря атмосферное давление.
Po - Атмосферное давление - измеренное на уровне метеостанции атмосферное давление.
Tmin - Минимальная температура - минимум температуры воздуха на высоте 2 м над землей.
Tmax - Максимальная температура - максимум температуры воздуха на высоте 2 м над землей.
R - Количество осадков - Количество выпавших осадков за период времени, мм. При наведении курсора мыши на число - период времени, за который выпало указанное количество осадков.
R24 - Количество осадков - Количество выпавших осадков за 24 часа, мм.
S - Снежный покров - Высота снежного покрова, см. При наведении курсора мыши на число - состояние снежного покрова и степень покрытия местности в баллах.